Flag for Switzerland Weather past 2 weeks in Thalwil, Zurich, Switzerland

Now
64 °F

Mild.


Feels Like: 64 °F
Forecast: 51 / 68 °F
Wind: 3 mph from East

Location: Zurich Town / Ville.

Current Time: Sep 2, 2015 at 12:49:09 PM

Latest Report: Sep 2, 2015 at 12:00 PM


Visibility: N/A

Pressure: 29.99 "Hg

Humidity: 72%

Dew point: 55 °F

Location of ThalwilLocation

Historic Weather in Thalwil — Graph

°F

Thalwil temperature yesterday

Maximum temperature yesterday: 72 °F (at 12:00 AM)
Minimum temperature yesterday: 59 °F (at 10:00 PM)
Average temperature yesterday: 67 °F

Past Weeks' High & Low Weather Summary

 TemperatureHumidityPressure
High89 °F (Aug 30, 4:00 PM)98% (Aug 24, 2:00 AM)30.26 "Hg (Aug 24, 2:00 AM)
Low52 °F (Aug 20, 7:00 AM)23% (Aug 30, 3:00 PM)29.70 "Hg (Aug 24, 2:00 PM)
Average67 °F69%30.02 "Hg
* Reported Aug 18 11:00 AM — Sep 2 11:00 AM, Thalwil, Weather by CustomWeather, © 2015

Note: Actual official high and low records may vary slightly from our data, if they occured in-between our weather recording intervals... More about our weather records

Advertising

Thalwil weather history for previous 24 hours

 ConditionsComfort  
Time TempWeatherWind HumidityBarometerVisibility
11:00 AM
Wed, Sep 2
62 °FCool.5 mph78%30.00 "HgN/A
10:40 AM61 °FCool.3 mph85%30.01 "HgN/A
10:00 AM59 °FCool.2 mph90%30.02 "HgN/A
9:00 AM58 °FCool.2 mph92%30.03 "HgN/A
8:00 AM57 °FOvercast.5 mph95%30.04 "HgN/A
7:00 AM56 °FCool.5 mph95%30.04 "HgN/A
5:00 AM57 °FCool.3 mph97%30.05 "HgN/A
4:00 AM58 °FCool.2 mph94%30.06 "HgN/A
3:00 AM58 °FCool.2 mph96%30.07 "HgN/A
2:00 AM58 °FCool.1 mph95%30.07 "HgN/A
1:00 AM58 °FCool.No wind96%30.07 "HgN/A
12:00 AM59 °FCool.2 mph97%30.07 "HgN/A
10:00 PM
Tue, Sep 1
59 °FCool.5 mph95%30.06 "HgN/A
9:00 PM60 °FCool.5 mph97%30.05 "HgN/A
8:00 PM61 °FCool.3 mph97%30.03 "HgN/A
7:00 PM61 °FCool.6 mph96%30.00 "HgN/A
6:00 PM62 °FMild.10 mph96%29.97 "HgN/A
5:00 PM64 °FMild.5 mph95%29.93 "HgN/A
4:00 PM64 °FMild.8 mph95%29.93 "HgN/A
3:00 PM64 °FMild.7 mph93%29.93 "HgN/A
2:00 PM65 °FOvercast.14 mph83%29.90 "HgN/A
1:00 PM71 °FMild.14 mph60%29.87 "HgN/A
12:00 PM69 °FMild.3 mph63%29.88 "HgN/A
Weather by CustomWeather, © 2015

See weather overviewHow to use our weather pages